Location: B?jaj?g
(11.7167°N, 92.6667°E)
Time: 06:12:41
(UTC+00:00)

SL-16 R/B - Pass Details

Date: 18 September 2020
Orbit: 841 x 848 km, 71.0° (Epoch: 18 October)

Event Time Altitude Azimuth Distance (km) Brightness Sun altitude
Rises 12:40:26 0° 340° (NNW) 3,391 5.7 -13.6°
Reaches altitude 10° 12:42:53 10° 338° (NNW) 2,455 5.0 -14.2°
Maximum altitude 12:48:28 69° 255° (WSW) 895 2.5 -15.6°
Drops below altitude 10° 12:54:04 10° 172° (S) 2,452 4.5 -17.0°
Sets 12:56:31 0° 170° (S) 3,386 5.2 -17.6°
